Salt Lake City, UT

2:03 AM MDT on July 24, 2017 (GMT -0600)
Salt Lake City International

Weather History for KSLC - July, 2013

Change the Weather History Date:

Saturday, July 13, 2013

  Actual Average Record
Temperature  
Mean Temperature 84 °F 79 °F  
Max Temperature 92 °F 93 °F 107 °F (2002)
Min Temperature 76 °F 65 °F 47 °F (1943)
Degree Days  
Heating Degree Days 0 0  
Month to date heating degree days 0 0  
Since 1 June heating degree days 4 46  
Since 1 July heating degree days 0 0  
Cooling Degree Days 19 14  
Month to date cooling degree days 248 160  
Year to date cooling degree days 641 397  
Since 1 June cooling degree days 571 347  
Growing Degree Days 31 (Base 50)    
Moisture  
Dew Point 53 °F    
Average Humidity 35    
Maximum Humidity 47    
Minimum Humidity 23    
Precipitation  
Precipitation T in 0.02 in 2.28 in (1962)
Month to date precipitation 0.82 0.21  
Year to date precipitation 6.94 9.42  
Snow  
Snow 0.00 in 0.00 in - ()
Month to date snowfall 0.0 0.0  
Since 1 July snowfall 0.0 0.0  
Snow Depth 0.00 in    
Sea Level Pressure  
Sea Level Pressure 29.90 in    
Wind  
Wind Speed 8 mph (SSE)    
Max Wind Speed 17 mph    
Max Gust Speed 22 mph    
Visibility 9 miles    
Events Rain , Thunderstorm    
T = Trace of Precipitation, MM = Missing Value Source: NWS Daily Summary

Daily Weather History Graph

Daily Weather History Graph

Search for Another Location

Airport or City:

Trip Planner

Search our weather history database for the weather conditions in past years. The results will help you decide how hot, cold, wet, or windy it might be!

Date:

Astronomy

Jul. 13, 2013 Rise Set
Actual Time 6:08 AM MDT 8:59 PM MDT
Civil Twilight 5:35 AM MDT 9:31 PM MDT
Nautical Twilight 4:54 AM MDT 10:12 PM MDT
Astronomical Twilight 4:07 AM MDT 10:59 PM MDT
Moon 11:30 AM MDT (7/13) 11:39 PM MDT (7/13)
Length of Visible Light 15h 55m
Length of Day
14h 50m
Waxing Crescent, 26% of the Moon is Illuminated
Jul 13
Waxing Crescent
Jul 15
First Quarter
Jul 22
Full
Jul 29
Last Quarter
Aug 6
New

Hourly Weather History & Observations

Time (MDT) Temp. Heat Index Dew Point Humidity Pressure Visibility Wind Dir Wind Speed Gust Speed Precip Events Conditions
12:53 AM 79.0 °F - 51.1 °F 38% 29.83 in 10.0 mi SE 9.2 mph - N/A   Overcast
1:53 AM 79.0 °F - 48.0 °F 34% 29.81 in 10.0 mi South 6.9 mph - N/A   Overcast
2:53 AM 78.1 °F - 55.0 °F 45% 29.81 in 10.0 mi SSE 9.2 mph - N/A   Overcast
3:53 AM 78.1 °F - 51.1 °F 39% 29.81 in 10.0 mi SE 9.2 mph - N/A   Overcast
4:53 AM 77.0 °F - 52.0 °F 42% 29.82 in 10.0 mi South 4.6 mph - N/A   Overcast
5:53 AM 75.9 °F - 54.0 °F 46% 29.83 in 10.0 mi SE 5.8 mph - N/A   Overcast
6:53 AM 77.0 °F - 54.0 °F 45% 29.83 in 10.0 mi SE 15.0 mph - N/A   Mostly Cloudy
7:53 AM 77.0 °F - 55.9 °F 48% 29.85 in 10.0 mi SSE 12.7 mph - N/A   Mostly Cloudy
8:53 AM 79.0 °F - 55.0 °F 44% 29.87 in 10.0 mi SSE 10.4 mph - N/A   Mostly Cloudy
9:53 AM 82.0 °F 81.3 °F 54.0 °F 38% 29.89 in 10.0 mi South 11.5 mph - N/A   Mostly Cloudy
10:53 AM 82.0 °F 81.2 °F 53.1 °F 37% 29.91 in 10.0 mi Variable 4.6 mph - N/A   Mostly Cloudy
11:53 AM 86.0 °F 84.0 °F 53.1 °F 32% 29.89 in 10.0 mi Calm Calm - N/A   Scattered Clouds
12:53 PM 89.1 °F - 51.1 °F 27% 29.87 in 10.0 mi SE 8.1 mph - N/A   Scattered Clouds
1:53 PM 88.0 °F - 50.0 °F 27% 29.87 in 10.0 mi South 9.2 mph - N/A   Scattered Clouds
2:53 PM 88.0 °F - 48.9 °F 26% 29.87 in 10.0 mi East 4.6 mph - N/A   Mostly Cloudy
3:53 PM 89.1 °F - 51.1 °F 27% 29.84 in 10.0 mi South 5.8 mph - 0.00 in   Mostly Cloudy
4:53 PM 90.0 °F - 48.0 °F 24% 29.82 in 10.0 mi NNE 4.6 mph - N/A   Mostly Cloudy
5:06 PM 89.6 °F - 48.2 °F 24% 30.02 in 10.0 mi Calm Calm - N/A Thunderstorm Thunderstorm
5:24 PM 86.0 °F - 51.8 °F 31% 30.04 in 10.0 mi WNW 17.3 mph 28.8 mph N/A Thunderstorm Mostly Cloudy
5:53 PM 77.0 °F - 52.0 °F 42% 29.91 in 8.0 mi WNW 24.2 mph 38.0 mph 0.00 in Rain , Thunderstorm Light Thunderstorms and Rain
6:15 PM 71.6 °F - 55.4 °F 57% 30.08 in 2.5 mi WNW 28.8 mph 35.7 mph 0.01 in Rain Heavy Rain
6:19 PM 71.6 °F - 55.4 °F 57% 30.08 in 7.0 mi WNW 24.2 mph 35.7 mph 0.04 in Rain , Thunderstorm Heavy Thunderstorms and Rain
6:30 PM 73.4 °F - 51.8 °F 47% 30.07 in 7.0 mi NNE 9.2 mph 31.1 mph 0.10 in Rain , Thunderstorm Heavy Thunderstorms and Rain
6:37 PM 73.4 °F - 53.6 °F 50% 30.06 in 7.0 mi NE 19.6 mph 26.5 mph 0.10 in Rain Light Rain
6:42 PM 75.2 °F - 53.6 °F 47% 30.06 in 10.0 mi NNE 18.4 mph 28.8 mph 0.10 in Rain Light Rain
6:53 PM 75.9 °F - 55.9 °F 50% 29.90 in 10.0 mi NE 15.0 mph 24.2 mph 0.10 in   Mostly Cloudy
7:53 PM 77.0 °F - 57.0 °F 50% 29.92 in 10.0 mi Calm Calm - N/A   Mostly Cloudy
8:53 PM 75.0 °F - 57.0 °F 53% 29.91 in 10.0 mi SW 4.6 mph - N/A   Mostly Cloudy
9:53 PM 75.0 °F - 57.0 °F 53% 29.91 in 10.0 mi South 3.5 mph - 0.00 in   Mostly Cloudy
10:53 PM 75.0 °F - 54.0 °F 48% 29.91 in 10.0 mi South 3.5 mph - N/A   Mostly Cloudy
11:53 PM 75.0 °F - 57.9 °F 55% 29.90 in 10.0 mi Calm Calm - N/A   Mostly Cloudy